Weather reports worldwide

Advertisment
Aguilas, Spain (8432): temperature & dewpoint: 19.03.2019 07:00:00 - 25.03.2019 07:00:00 (CET)Aguilas, Spain (8432): wind speed & gusts: 19.03.2019 07:00:00 - 25.03.2019 07:00:00 (CET)Aguilas, Spain (8432): wind direction: 19.03.2019 07:00:00 - 25.03.2019 07:00:00 (CET)Aguilas, Spain (8432): reduced air pressure: 19.03.2019 07:00:00 - 25.03.2019 07:00:00 (CET)Aguilas, Spain (8432): visibility: 19.03.2019 07:00:00 - 25.03.2019 07:00:00 (CET)Aguilas, Spain (8432): sunshine duration: 19.03.2019 07:00:00 - 25.03.2019 07:00:00 (CET)Aguilas, Spain (8432): precipitation: 19.03.2019 07:00:00 - 25.03.2019 07:00:00 (CET)
Date & Time tt [°C] td [°C] ff [km/h] ff [kn] fx [km/h] fx [kn] dd ppp [hPa] vv [km] sd [min] rr [mm]
25.03.2019 07:00:00 12,1 3,0 3 1 9 5 WSW 1020,0 17 0 -
25.03.2019 06:00:00 12,7 2,3 3 2 6 4 W 1019,8 20 0 0,0
25.03.2019 05:00:00 13,3 2,5 1 1 11 6 SW 1019,7 20 0 0,0
25.03.2019 04:00:00 14,4 2,3 4 2 7 4 WNW 1020,2 20 0 0,0
25.03.2019 03:00:00 15,7 0,2 5 3 11 6 NE 1020,1 20 0 0,0
25.03.2019 02:00:00 14,8 2,3 2 1 9 5 NNE 1021,0 20 0 0,0
25.03.2019 01:00:00 14,4 3,8 5 3 9 5 NNW 1021,3 20 0 -
25.03.2019 00:00:00 16,2 0,6 5 3 11 6 E 1021,4 20 0 0,0
24.03.2019 23:00:00 14,8 4,5 3 2 6 3 WNW 1021,9 20 0 0,0
24.03.2019 22:00:00 15,4 4,5 4 2 6 4 N 1022,2 20 0 0,0
24.03.2019 21:00:00 15,8 6,8 2 1 10 6 WNW 1022,0 20 0 0,0
24.03.2019 20:00:00 16,6 7,0 5 3 11 6 NNE 1021,6 20 0 0,0
24.03.2019 19:00:00 17,1 7,7 8 5 18 10 ESE 1021,5 20 0 -
24.03.2019 18:00:00 17,6 8,1 15 8 25 13 ENE 1021,2 20 0 0,0
24.03.2019 17:00:00 17,4 9,0 16 9 30 16 ESE 1021,5 20 31 0,0
24.03.2019 16:00:00 20,1 7,1 17 9 30 16 ESE 1021,6 18 60 0,0
24.03.2019 15:00:00 20,0 4,8 16 9 28 15 ESE 1022,1 20 48 0,0
24.03.2019 14:00:00 19,7 5,8 18 10 32 18 ESE 1022,7 20 0 0,0
24.03.2019 13:00:00 19,9 4,3 16 9 32 18 E 1023,1 20 27 -
24.03.2019 12:00:00 19,9 3,9 18 10 34 18 ENE 1023,4 20 54 0,0
24.03.2019 11:00:00 18,1 4,3 16 9 33 18 ENE 1023,8 20 13 0,0
24.03.2019 10:00:00 17,3 4,3 17 9 33 18 ENE 1023,5 20 54 0,0
24.03.2019 09:00:00 16,2 4,8 11 6 28 15 ENE 1023,3 20 17 0,0
24.03.2019 08:00:00 14,9 4,8 8 5 22 12 ENE 1023,1 20 0 0,0
24.03.2019 07:00:00 14,8 4,1 6 3 19 11 NE 1022,9 20 0 -
24.03.2019 06:00:00 13,0 5,5 3 1 13 7 NE 1022,7 20 0 0,0
24.03.2019 05:00:00 10,7 5,8 4 2 9 5 W 1022,8 20 0 0,0
24.03.2019 04:00:00 11,7 5,9 3 1 12 7 SSE 1022,6 20 0 0,0
24.03.2019 03:00:00 12,9 6,2 4 2 13 7 ENE 1023,2 20 0 0,0
24.03.2019 02:00:00 13,3 6,4 6 4 20 11 E 1023,4 20 0 0,0
24.03.2019 01:00:00 13,3 6,8 9 5 16 8 ENE 1023,5 20 0 -
24.03.2019 00:00:00 10,5 7,0 3 2 8 4 WNW 1024,2 13 0 0,0
23.03.2019 23:00:00 11,6 7,6 4 2 8 4 NNE 1024,2 10 0 0,0
23.03.2019 22:00:00 12,3 8,3 3 2 6 3 NNW 1024,5 9 0 0,0
23.03.2019 21:00:00 13,7 8,5 3 1 6 4 ENE 1024,6 13 0 0,0
23.03.2019 20:00:00 14,6 8,8 4 2 12 7 ENE 1024,3 16 0 0,0
23.03.2019 19:00:00 15,1 8,4 8 5 18 10 E 1023,9 17 0 -
23.03.2019 18:00:00 15,4 7,7 10 5 19 10 E 1023,8 20 0 0,0
23.03.2019 17:00:00 15,3 7,8 8 5 20 11 ENE 1023,9 20 0 0,0
23.03.2019 16:00:00 14,8 8,9 5 3 19 10 ENE 1024,4 20 0 0,2
23.03.2019 15:00:00 14,4 8,8 8 4 13 7 E 1024,9 20 0 0,0
23.03.2019 14:00:00 13,3 9,6 6 3 24 13 NE 1025,5 20 0 1,2
23.03.2019 13:00:00 14,0 8,1 8 4 24 13 ENE 1026,0 20 0 -
23.03.2019 12:00:00 13,6 8,3 14 7 31 17 ENE 1026,2 20 0 0,2
23.03.2019 11:00:00 15,8 4,5 17 9 34 19 E 1026,0 20 0 0,0
23.03.2019 10:00:00 16,4 4,1 17 9 32 17 E 1026,0 20 44 0,0
23.03.2019 09:00:00 16,6 5,3 13 7 28 15 E 1025,6 20 38 0,0
23.03.2019 08:00:00 13,5 5,6 2 1 12 6 NNE 1025,5 20 0 0,0
23.03.2019 07:00:00 13,3 5,5 5 3 9 5 NNE 1025,2 20 0 -
23.03.2019 06:00:00 13,1 5,3 4 2 9 5 N 1025,1 20 0 0,0
23.03.2019 05:00:00 14,0 5,9 5 3 13 7 ENE 1025,0 20 0 0,0
23.03.2019 04:00:00 14,1 4,6 3 2 6 3 NE 1025,1 20 0 0,0
23.03.2019 03:00:00 14,2 3,9 3 1 6 4 E 1025,3 20 0 0,0
23.03.2019 02:00:00 15,1 3,2 3 1 11 6 SE 1025,3 20 0 0,0
23.03.2019 01:00:00 14,2 4,1 6 3 9 5 NNW 1025,5 20 0 -
23.03.2019 00:00:00 13,4 4,5 0 0 10 5 N 1026,0 20 0 0,0
22.03.2019 23:00:00 13,2 5,1 5 3 11 6 N 1026,4 20 0 0,0
22.03.2019 22:00:00 13,9 6,5 3 2 8 5 N 1026,3 20 0 0,0
22.03.2019 21:00:00 14,2 6,5 5 3 9 5 NNW 1026,2 20 0 0,0
22.03.2019 20:00:00 14,6 6,7 3 2 10 5 W 1025,8 20 0 0,0
22.03.2019 19:00:00 15,5 6,2 6 3 14 7 SSE 1025,4 20 0 -
22.03.2019 18:00:00 16,2 5,8 6 4 21 11 SSE 1025,1 20 55 0,0
22.03.2019 17:00:00 16,7 5,0 12 7 23 12 SE 1025,1 19 60 0,0
22.03.2019 16:00:00 16,5 5,1 15 8 26 14 SE 1025,3 20 60 0,0
22.03.2019 15:00:00 16,9 5,5 16 9 28 15 SE 1025,6 20 60 0,0
22.03.2019 14:00:00 17,5 4,5 11 6 24 13 SSE 1025,9 19 60 0,0
22.03.2019 13:00:00 17,3 2,5 11 6 26 14 SSE 1026,3 20 60 -
22.03.2019 12:00:00 17,3 1,3 16 9 27 15 SE 1026,6 20 60 0,0
22.03.2019 11:00:00 17,1 0,2 10 6 28 15 ENE 1027,2 20 60 0,0
22.03.2019 10:00:00 15,6 -0,3 14 7 27 15 E 1027,2 20 60 0,0
22.03.2019 09:00:00 14,2 0,0 9 5 19 10 ENE 1026,8 20 24 0,0
22.03.2019 08:00:00 11,5 -1,0 8 5 22 12 N 1026,6 20 0 0,0
22.03.2019 07:00:00 10,4 -0,7 8 5 15 8 N 1026,2 20 0 -
22.03.2019 06:00:00 9,8 -0,5 4 2 12 6 N 1025,9 20 0 0,0
22.03.2019 05:00:00 10,0 -1,2 6 3 14 7 N 1025,9 20 0 0,0
22.03.2019 04:00:00 9,6 1,3 6 4 12 7 NNE 1026,1 20 0 0,0
22.03.2019 03:00:00 8,9 2,3 4 2 8 4 NNW 1026,6 20 0 0,0
22.03.2019 02:00:00 10,3 2,9 3 1 11 6 N 1026,9 20 0 0,0
22.03.2019 01:00:00 11,9 3,6 5 3 15 8 NNE 1027,1 20 0 -
22.03.2019 00:00:00 12,1 3,8 7 4 16 9 ENE 1027,3 20 0 0,0
21.03.2019 23:00:00 12,4 3,6 5 3 31 17 N 1027,3 20 0 0,0
21.03.2019 22:00:00 13,3 3,0 19 10 33 18 E 1026,9 20 0 0,0
21.03.2019 21:00:00 13,6 3,4 21 12 44 24 E 1026,6 20 0 0,0
21.03.2019 20:00:00 14,1 3,8 24 13 40 22 E 1025,7 20 0 0,0
21.03.2019 19:00:00 15,0 3,8 20 11 45 24 ESE 1025,3 20 45 -
21.03.2019 18:00:00 16,5 2,5 21 12 40 21 ESE 1024,8 20 60 0,0
21.03.2019 17:00:00 17,2 0,9 22 12 42 23 ESE 1024,7 20 60 0,0
21.03.2019 16:00:00 17,0 2,5 27 14 42 23 SE 1025,0 20 60 0,0
21.03.2019 15:00:00 18,5 1,1 24 13 44 24 ESE 1025,3 20 59 0,0
21.03.2019 14:00:00 18,6 0,6 23 12 51 27 ESE 1025,8 20 60 0,0
21.03.2019 13:00:00 17,5 -1,2 27 14 47 25 E 1026,4 20 59 -
21.03.2019 12:00:00 16,9 -0,7 20 11 39 21 ENE 1026,9 20 60 0,0
21.03.2019 11:00:00 16,4 -1,2 18 10 44 24 ENE 1027,1 13 60 0,0
21.03.2019 10:00:00 15,2 -1,4 17 9 41 22 ENE 1027,2 20 60 0,0
21.03.2019 09:00:00 14,4 -1,2 16 8 30 16 ENE 1027,1 20 60 0,0
21.03.2019 08:00:00 12,5 -3,0 9 5 24 13 NE 1026,6 20 23 0,0
21.03.2019 07:00:00 9,4 -0,7 9 5 20 11 NNW 1026,4 20 0 -
21.03.2019 06:00:00 10,1 -1,0 9 5 17 9 N 1026,0 20 0 0,0
21.03.2019 05:00:00 9,7 1,3 10 5 16 9 NNW 1025,9 20 0 0,0
21.03.2019 04:00:00 11,3 1,1 6 3 22 12 N 1026,1 20 0 0,0
21.03.2019 03:00:00 12,0 1,1 10 5 26 14 ENE 1026,7 20 0 0,0
21.03.2019 02:00:00 12,0 0,4 9 5 22 12 ENE 1027,2 20 0 0,0
21.03.2019 01:00:00 10,2 2,5 5 3 12 6 NNE 1027,7 20 0 -
21.03.2019 00:00:00 10,9 2,7 6 3 14 7 NNE 1028,2 20 0 0,0
20.03.2019 23:00:00 11,5 2,3 5 3 14 8 NE 1028,5 20 0 0,0
20.03.2019 22:00:00 11,4 2,1 3 1 8 4 N 1028,5 20 0 0,0
20.03.2019 21:00:00 11,7 2,7 5 3 - - N 1028,2 20 - -
20.03.2019 20:00:00 - - - - - - - - - - -
20.03.2019 19:00:00 - - - - - - - - - - -
20.03.2019 18:00:00 - - - - - - - - - - -
20.03.2019 17:00:00 16,2 2,3 22 12 43 23 ESE 1025,8 20 57 0,0
20.03.2019 16:00:00 16,5 1,7 21 12 41 22 ESE 1025,9 20 60 0,0
20.03.2019 15:00:00 17,2 3,4 19 10 33 18 ESE 1026,2 20 31 0,0
20.03.2019 14:00:00 15,4 2,3 12 6 40 22 E 1027,0 20 19 0,0
20.03.2019 13:00:00 15,5 3,2 16 8 41 22 E 1027,7 20 22 -
20.03.2019 12:00:00 15,5 4,3 17 9 36 19 ESE 1027,7 20 19 0,0
20.03.2019 11:00:00 16,0 0,9 12 7 33 18 ENE 1027,7 20 36 0,0
20.03.2019 10:00:00 14,0 2,5 11 6 24 13 ENE 1027,7 20 29 0,0
20.03.2019 09:00:00 14,6 2,1 6 3 12 7 NE 1027,1 20 60 0,0
20.03.2019 08:00:00 12,4 2,3 5 3 18 10 ENE 1026,6 20 21 0,0
20.03.2019 07:00:00 11,7 1,9 9 5 17 9 NE 1025,8 20 0 -
20.03.2019 06:00:00 10,9 1,9 9 5 15 8 E 1025,5 20 0 0,0
20.03.2019 05:00:00 11,4 2,5 4 2 6 4 NE 1025,2 20 0 0,0
20.03.2019 04:00:00 11,5 3,6 2 1 7 4 N 1025,4 20 0 0,0
20.03.2019 03:00:00 11,8 3,8 0 0 7 4 N 1025,9 20 0 0,0
20.03.2019 02:00:00 12,1 4,3 3 2 9 5 ESE 1026,4 20 0 0,0
20.03.2019 01:00:00 12,4 4,3 4 2 8 4 NNE 1026,4 20 0 -
20.03.2019 00:00:00 12,6 4,1 3 1 9 5 NNE 1026,6 20 0 0,0
19.03.2019 23:00:00 12,5 3,9 4 2 10 6 NNE 1026,5 20 0 0,0
19.03.2019 22:00:00 12,2 4,5 2 1 14 7 NE 1026,1 20 0 0,0
19.03.2019 21:00:00 12,9 4,8 6 4 14 7 ENE 1025,5 20 0 0,0
19.03.2019 20:00:00 13,0 5,6 9 5 19 10 E 1024,7 20 0 0,0
19.03.2019 19:00:00 13,7 5,1 12 7 25 14 E 1024,0 20 0 -
19.03.2019 18:00:00 14,0 7,1 10 6 33 18 ESE 1022,9 20 0 0,0
19.03.2019 17:00:00 14,8 6,8 16 9 30 16 ESE 1022,2 20 38 0,0
19.03.2019 16:00:00 15,9 7,8 18 10 29 16 ESE 1021,7 20 9 0,0
19.03.2019 15:00:00 14,5 8,3 14 7 29 16 ESE 1021,8 20 7 0,0
19.03.2019 14:00:00 16,8 8,3 16 8 27 15 SE 1021,5 20 34 0,0
19.03.2019 13:00:00 17,4 4,3 11 6 20 11 SE 1022,0 20 36 -
19.03.2019 12:00:00 15,7 7,7 11 6 19 11 ESE 1022,4 17 0 0,0
19.03.2019 11:00:00 15,5 5,5 7 4 17 9 NW 1022,5 20 0 0,0
19.03.2019 10:00:00 14,8 7,3 3 2 9 5 WNW 1022,8 17 0 0,0
19.03.2019 09:00:00 13,9 7,1 6 4 10 6 NE 1022,8 17 0 0,0
19.03.2019 08:00:00 11,6 6,2 1 1 6 4 SSE 1022,4 15 4 0,0
19.03.2019 07:00:00 11,5 6,2 1 1 5 3 NE 1022,4 18 0 -

tt = temperature
td = dewpoint
ff = wind speed
fx = gusts
dd = wind direction
ppp = reduced air pressure
vv = visibility
sd = sunshine duration
rr = precipitation

Next stations